User: anonymous   Login
Location: Unspecified
(0.0000°N, 0.0000°E)
Time: 07:40:47
(UTC+00:00)
Language:

ANNA 1B - Orbit

View from above orbital plane
View from above orbital plane
View from above satellite
View from above satellite

Ground track
Ground track

The orbit data is extracted from the following two-line orbital elements,

1   446U 62060A   19082.52399384 -.00000108 +00000-0 +37536-4 0  9999
2   446 050.1409 186.2899 0070297 092.1432 355.6017 13.35268412750637
Epoch (UTC): 23 March 2019 12:34:33
Eccentricity: 0.0070297
inclination: 50.1409°
perigee height: 1074 km
apogee height: 1180 km
right ascension of ascending node: 186.2899°
argument of perigee: 92.1432°
revolutions per day: 13.35268412
mean anomaly at epoch: 355.6017°
orbit number at epoch: 75063

The dashed part of the orbit path shows where the satellite is in the earth's shadow,  

DLR